[[{"header":{"parameterUnit":"m.s-1","parameterCategory":1,"la1":30.2991,"la2":30.254,"lo1":-89.0895,"lo2":-89.0444,"dy":0.0017,"dx":0.0017,"nx":28,"ny":28,"refTime":"2025-04-02T03:00:00:Z","depth":0,"parameterNumber":2,"parameterNumberName":"U-component_of_WINDS"},"data":[0,0,0,0,0,0,0,0,0,0,0,0,0,0,0,0,0,0,0,0,0,0,0,0,0,0,0,0,0,0,0,0,0,0,0,0,0,0,0,0,0,0,0,0,0,0,0,0,0,0,0,0,0,0,0,0,0,0,-4.0179,-4.018,0,-4.0259,-4.026,-4.0261,-4.0229,-4.0227,-4.0225,-4.0223,-4.0306,-4.031,-4.0314,0,0,0,0,0,0,0,0,0,0,0,0,0,-4.0,-4.0004,-4.0179,-4.018,-4.0181,-4.0259,-4.026,-4.0262,-4.0229,-4.0227,-4.0224,-4.0222,-4.0305,-4.031,-4.0314,0,0,0,0,0,0,0,0,0,0,0,0,0,-4.0079,-4.0005,-4.0179,-4.0174,-4.0175,-4.0259,-4.026,-4.0262,-4.023,-4.0227,-4.0224,-4.0221,-4.0303,-4.0309,-4.0315,-4.0409,0,0,-4.0333,-4.0336,0,0,0,0,0,0,0,0,-4.0075,-4.0086,-4.0174,-4.0175,-4.0175,-4.0231,-4.0228,-4.0311,-4.023,-4.0209,-4.0223,-4.022,-4.0284,-4.0291,-4.0312,-4.0413,-4.0416,-4.0334,-4.0337,-4.034,-4.0342,0,0,0,0,0,0,0,-4.0069,-4.0082,-4.0211,-4.0175,-4.0176,-4.0169,-4.0177,-4.0243,-4.0261,-4.021,-4.0208,-4.0218,-4.0283,-4.0307,-4.0314,-4.0417,-4.0334,-4.0339,-4.0343,-4.0345,-4.06,-4.0603,0,0,0,0,0,0,-4.0063,-4.0078,-4.0208,-4.0213,-4.0117,-4.0175,-4.0184,-4.0216,-4.026,-4.0264,-4.0221,-4.0216,-4.0298,-4.0307,-4.0317,-4.0429,-4.034,-4.0346,-4.0349,-4.0597,-4.0601,-4.0604,0,0,0,0,0,0,-4.006,-4.0075,-4.0205,-4.0145,-4.0161,-4.0181,-4.0218,-4.0219,-4.0242,-4.0268,-4.0271,-4.0241,-4.0296,-4.0308,-4.0386,-4.0432,-4.0348,-4.0354,-4.0593,-4.0598,-4.0603,-4.0655,0,0,0,0,0,0,-4.0055,-4.0074,-4.0109,-4.0146,-4.0164,-4.0273,-4.022,-4.0223,-4.0253,-4.0248,-4.0288,-4.0292,-4.0295,-4.0378,-4.0392,-4.0438,-4.0358,-4.0589,-4.0595,-4.0601,-4.0649,-4.0661,-4.0671,0,0,0,0,0,-4.0048,-4.0121,-4.0111,-4.0127,-4.0208,-4.0275,-4.0286,-4.0287,-4.0256,-4.0292,-4.0309,-4.029,-4.0425,-4.0386,-4.0402,-4.0451,-4.0586,-4.0594,-4.0601,-4.0644,-4.0659,-4.0671,0,0,0,0,0,0,-4.0088,-4.0125,-4.0115,-4.0201,-4.0236,-4.027,-4.0314,-4.0302,-4.0346,-4.034,-4.0341,-4.035,-4.043,-4.0449,-4.0404,-4.0545,-4.0501,-4.0512,-4.0529,-4.0543,-4.0553,-4.0546,-4.0363,0,0,0,0,0,-4.0108,-4.0158,-4.0188,-4.0261,-4.0279,-4.0294,-4.0323,-4.0322,-4.0357,-4.0371,-4.0394,-4.0429,-4.048,-4.0513,-4.056,-4.0653,-4.0661,-4.0695,-4.0706,-4.0715,-4.0723,-4.0774,-4.0789,-4.0628,-4.0628,-4.0628,0,0,-4.0147,-4.0173,-4.0205,-4.027,-4.0296,-4.0349,-4.0306,-4.0364,-4.0403,-4.038,-4.0454,-4.0473,-4.0513,-4.0599,-4.0638,-4.0616,-4.077,-4.0724,-4.0731,-4.0734,-4.0783,-4.0798,-4.0812,-4.0633,-4.0632,-4.0631,0,0,-4.0245,-4.0271,-4.0334,-4.0362,-4.0402,-4.0412,-4.0428,-4.0465,-4.0476,-4.0551,-4.0535,-4.0583,-4.067,-4.0699,-4.0725,-4.0838,-4.0822,-4.0854,-4.0909,-4.0959,-4.0972,-4.0983,-4.1022,-4.1036,-4.0863,-4.0863,-4.0863,0,-4.0289,-4.0367,-4.0369,-4.0428,-4.0457,-4.044,-4.0505,-4.0532,-4.0586,-4.0607,-4.0584,-4.0693,-4.0718,-4.0811,-4.0838,-4.0861,-4.0879,-4.0847,-4.097,-4.0981,-4.0991,-4.1029,-4.1044,-4.0866,-4.0866,-4.0866,-4.0865,0,-4.0419,-4.0474,-4.0521,-4.0573,-4.0608,-4.067,-4.0682,-4.0718,-4.0715,-4.0728,-4.0805,-4.0836,-4.089,-4.0913,-4.091,-4.1005,-4.0991,-4.0969,-4.0924,-4.101,-4.1045,-4.106,-4.0871,-4.087,-4.0869,-4.0868,0,0,-4.0541,-4.0596,-4.0613,-4.0637,-4.0682,-4.0724,-4.0787,-4.0839,-4.087,-4.0909,-4.0961,-4.1036,-4.1016,-4.1046,-4.1047,-4.1091,-4.1178,-4.1064,-4.1065,-4.1082,-4.1285,-4.13,-4.1316,-4.117,-4.1172,-4.1175,-4.1281,0,-4.0642,-4.0749,-4.0754,-4.0852,-4.0903,-4.0889,-4.0944,-4.0978,-4.0993,-4.1039,-4.1056,-4.1108,-4.1078,-4.1096,-4.114,-4.1158,-4.1218,-4.1151,-4.1217,-4.122,-4.1205,-4.1335,-4.135,-4.1449,-4.1295,-4.1297,-4.1299,0,-4.0772,-4.0815,-4.0919,-4.0957,-4.0979,-4.1027,-4.1077,-4.1121,-4.116,-4.1168,-4.1203,-4.1198,-4.1263,-4.1219,-4.1309,-4.1263,-4.1291,-4.1305,-4.1309,-4.1313,-4.1263,-4.1341,-4.1481,-4.1495,-4.1321,-4.1319,-4.1318,0,-4.085,-4.0934,-4.1007,-4.1028,-4.1075,-4.111,-4.1131,-4.1167,-4.1199,-4.1243,-4.1264,-4.1316,-4.1343,-4.1384,-4.1393,-4.1361,-4.1483,-4.144,-4.1491,-4.1491,-4.1515,-4.1513,-4.1659,-4.1537,-4.1537,-4.1536,-4.1536,0,-4.096,-4.1023,-4.1042,-4.1086,-4.1158,-4.1164,-4.1235,-4.1254,-4.1287,-4.1336,-4.1328,-4.1374,-4.1385,-4.1434,-4.1443,-4.1516,-4.1529,-4.1537,-4.1538,-4.1536,-4.1535,-4.1553,-4.1545,-4.154,-4.154,-4.1539,-4.1538,0,-4.1057,-4.1072,-4.115,-4.1189,-4.1201,-4.1251,-4.1285,-4.1328,-4.1343,-4.1405,-4.142,-4.1444,-4.1501,-4.1516,-4.1584,-4.159,-4.1675,-4.1671,-4.1662,-4.1661,-4.171,-4.1705,-4.1872,-4.1894,-4.1759,-4.176,-4.1761,0,-4.1125,-4.1173,-4.1218,-4.125,-4.1273,-4.1325,-4.1357,-4.1367,-4.1401,-4.1451,-4.1488,-4.1545,-4.159,-4.1682,-4.1706,-4.1758,-4.1754,-4.1809,-4.1762,-4.1759,-4.1753,-4.1749,-4.1754,-4.1817,-4.1819,-4.182,-4.1821,0,-4.1244,-4.125,-4.1297,-4.1347,-4.1386,-4.1427,-4.1465,-4.1492,-4.1507,-4.1547,-4.1605,-4.164,-4.1711,-4.1767,-4.1821,-4.1844,-4.1835,-4.1836,-4.185,-4.1848,-4.184,-4.1843,-4.1684,-4.1831,-4.183,-4.1829,-4.1829,-4.1828,-4.1328,-4.137,-4.1408,-4.1461,-4.1492,-4.1529,-4.1571,-4.1592,-4.1641,-4.1698,-4.1701,-4.1765,-4.1805,-4.1876,-4.1902,-4.1953,-4.1936,-4.1957,-4.1962,-4.1967,-4.197,-4.1834,-4.1963,-4.1963,-4.1962,-4.1962,-4.1962,0,-4.1445,-4.1469,-4.1518,-4.1573,-4.1615,-4.1604,-4.1647,-4.1683,-4.1739,-4.1776,-4.1821,-4.1889,-4.1944,-4.1973,-4.2028,-4.2063,-4.2061,-4.2077,-4.2073,-4.2079,-4.1982,-4.1964,-4.2078,-4.2078,-4.2078,-4.2078,-4.2078,-4.2078,-4.1511,-4.1582,-4.1593,-4.168,-4.1704,-4.1765,-4.1791,-4.1825,-4.1855,-4.1931,-4.1976,-4.1995,-4.203,-4.2088,-4.2138,-4.2146,-4.2166,-4.2184,-4.2189,-4.2098,-4.2086,-4.2074,-4.2056,-4.2189,-4.2189,-4.2281,-4.2282,-4.2283]},{"header":{"parameterUnit":"m.s-1","parameterCategory":1,"la1":30.2991,"la2":30.254,"lo1":-89.0895,"lo2":-89.0444,"dy":0.0017,"dx":0.0017,"nx":28,"ny":28,"refTime":"2025-04-02T03:00:00:Z","depth":0,"parameterNumber":3,"parameterNumberName":"V-component_of_WINDS"},"data":[0,0,0,0,0,0,0,0,0,0,0,0,0,0,0,0,0,0,0,0,0,0,0,0,0,0,0,0,0,0,0,0,0,0,0,0,0,0,0,0,0,0,0,0,0,0,0,0,0,0,0,0,0,0,0,0,0,0,3.5722,3.5722,0,3.5747,3.5748,3.5748,3.5749,3.5748,3.5748,3.5748,3.5772,3.5773,3.5774,0,0,0,0,0,0,0,0,0,0,0,0,0,3.5675,3.5675,3.5722,3.5722,3.5723,3.5747,3.5748,3.5748,3.5749,3.5748,3.5748,3.5748,3.5772,3.5773,3.5774,0,0,0,0,0,0,0,0,0,0,0,0,0,3.5697,3.5676,3.5722,3.5726,3.5727,3.5747,3.5748,3.5748,3.5749,3.5748,3.5748,3.5748,3.5772,3.5773,3.5774,3.5792,0,0,3.5779,3.5779,0,0,0,0,0,0,0,0,3.5696,3.5699,3.5725,3.5726,3.5726,3.5745,3.574,3.5763,3.5749,3.574,3.5748,3.5747,3.5763,3.5765,3.5771,3.5793,3.5794,3.5779,3.578,3.578,3.5781,0,0,0,0,0,0,0,3.5694,3.5698,3.5732,3.5725,3.5726,3.5727,3.573,3.5744,3.5754,3.5741,3.5741,3.5744,3.5764,3.577,3.5772,3.5795,3.5779,3.578,3.5781,3.5781,3.5836,3.5837,0,0,0,0,0,0,3.5692,3.5696,3.5731,3.5733,3.571,3.5728,3.5731,3.5739,3.5754,3.5756,3.5745,3.5744,3.5768,3.577,3.5772,3.5796,3.578,3.5781,3.5782,3.5836,3.5836,3.5837,0,0,0,0,0,0,3.5691,3.5695,3.573,3.5715,3.5719,3.5729,3.5738,3.574,3.5746,3.5757,3.5758,3.5749,3.5767,3.577,3.5788,3.5797,3.5782,3.5783,3.5835,3.5836,3.5837,3.5843,0,0,0,0,0,0,3.569,3.5695,3.5701,3.5715,3.572,3.5745,3.5739,3.5741,3.5749,3.5748,3.5761,3.5763,3.5767,3.5786,3.579,3.5799,3.5784,3.5834,3.5835,3.5836,3.5842,3.5844,3.5845,0,0,0,0,0,3.5688,3.5701,3.5701,3.5706,3.5728,3.5745,3.5748,3.5754,3.5749,3.5756,3.5764,3.5762,3.5796,3.5788,3.5792,3.5801,3.5833,3.5835,3.5836,3.5841,3.5843,3.5845,0,0,0,0,0,0,3.5686,3.5702,3.5703,3.5721,3.5732,3.5746,3.5754,3.5755,3.5767,3.5766,3.5772,3.5775,3.5793,3.5799,3.579,3.5821,3.5814,3.5816,3.5816,3.5819,3.5821,3.5819,3.5786,0,0,0,0,0,3.5688,3.5701,3.5714,3.5729,3.5734,3.5744,3.5751,3.5755,3.5766,3.577,3.5779,3.579,3.5803,3.5811,3.5824,3.5843,3.5847,3.5852,3.5854,3.5855,3.5857,3.587,3.5873,3.5842,3.5842,3.5842,0,0,3.5691,3.5702,3.5709,3.5729,3.5738,3.5751,3.5747,3.5761,3.5771,3.5772,3.579,3.5797,3.581,3.5829,3.5838,3.5834,3.5867,3.5857,3.5858,3.5859,3.5872,3.5875,3.5878,3.5842,3.5842,3.5842,0,0,3.5705,3.5714,3.5728,3.5738,3.5752,3.5759,3.5763,3.5777,3.5782,3.58,3.5802,3.5814,3.5836,3.5846,3.5854,3.5876,3.5875,3.5879,3.5889,3.5902,3.5904,3.5906,3.5915,3.5918,3.5881,3.5881,3.5881,0,3.5707,3.5728,3.5735,3.575,3.5759,3.5762,3.5777,3.5786,3.5804,3.581,3.5807,3.5837,3.5845,3.5868,3.5874,3.5879,3.5885,3.5877,3.5903,3.5906,3.5908,3.5916,3.592,3.5882,3.5882,3.5882,3.5882,0,3.5731,3.5746,3.5755,3.5774,3.5784,3.5799,3.5809,3.5819,3.5822,3.583,3.585,3.5861,3.5877,3.5883,3.5885,3.5907,3.5904,3.5902,3.5895,3.5911,3.5919,3.5923,3.5882,3.5882,3.5882,3.5882,0,0,3.5741,3.5766,3.577,3.578,3.5797,3.5809,3.5825,3.5842,3.5851,3.5864,3.5878,3.5899,3.5898,3.5907,3.5911,3.5922,3.5941,3.5919,3.5919,3.5923,3.5967,3.5969,3.5973,3.5941,3.5942,3.5942,3.5967,0,3.5757,3.5786,3.5795,3.5819,3.5834,3.5839,3.5853,3.5866,3.5874,3.5888,3.5897,3.5912,3.5909,3.5915,3.5926,3.5936,3.595,3.5934,3.5955,3.5956,3.5952,3.5977,3.5978,3.6,3.597,3.597,3.5971,0,3.5779,3.5795,3.5821,3.584,3.5846,3.5859,3.5877,3.589,3.5906,3.5911,3.5923,3.5927,3.5945,3.5938,3.5964,3.5954,3.5963,3.5969,3.597,3.5972,3.5964,3.598,3.6007,3.6011,3.5976,3.5975,3.5975,0,3.5786,3.5813,3.5833,3.5841,3.5863,3.5872,3.5882,3.5897,3.5908,3.5924,3.5931,3.5949,3.5958,3.5972,3.5981,3.5975,3.6007,3.6,3.6012,3.6012,3.6018,3.6017,3.6047,3.6024,3.6024,3.6024,3.6023,0,3.5803,3.5819,3.5837,3.5849,3.5868,3.5878,3.5897,3.5907,3.5921,3.5936,3.5942,3.5956,3.5967,3.5983,3.599,3.6011,3.6015,3.6021,3.6022,3.602,3.602,3.6026,3.6025,3.6024,3.6024,3.6024,3.6024,0,3.5812,3.5825,3.5847,3.5868,3.5873,3.5887,3.5904,3.5917,3.5927,3.5946,3.5951,3.5966,3.5985,3.5997,3.602,3.6025,3.6049,3.605,3.6044,3.6045,3.6057,3.6056,3.6092,3.6098,3.607,3.6071,3.6071,0,3.5822,3.5835,3.5858,3.5869,3.5879,3.5896,3.5908,3.592,3.5932,3.5954,3.5964,3.5984,3.6001,3.6032,3.6045,3.6064,3.6065,3.6077,3.6068,3.6066,3.6067,3.6066,3.6068,3.6078,3.6078,3.6078,3.6079,0,3.5839,3.5845,3.5862,3.5883,3.5897,3.5913,3.5929,3.5938,3.5953,3.5966,3.5987,3.6,3.6026,3.6047,3.6067,3.6078,3.6081,3.6082,3.6086,3.6083,3.608,3.6083,3.6049,3.608,3.608,3.608,3.608,3.608,3.5849,3.5862,3.5881,3.5901,3.5915,3.5931,3.5945,3.5957,3.5975,3.5998,3.6004,3.6026,3.6045,3.6073,3.6084,3.6102,3.61,3.6106,3.6107,3.6108,3.611,3.6078,3.6106,3.6106,3.6106,3.6106,3.6106,0,3.5867,3.588,3.5899,3.5922,3.5938,3.5942,3.5961,3.5974,3.5994,3.6011,3.6029,3.6054,3.6074,3.6091,3.6112,3.6124,3.6126,3.6129,3.6128,3.6131,3.6109,3.6104,3.6127,3.6127,3.6127,3.6127,3.6127,3.6127,3.5878,3.5901,3.591,3.5941,3.5954,3.5977,3.5987,3.6003,3.6017,3.6045,3.6063,3.6074,3.6092,3.6115,3.6135,3.6139,3.6147,3.615,3.6155,3.6134,3.6132,3.613,3.6125,3.6152,3.6152,3.6175,3.6175,3.6175]}]]